"Pseudo-MPEC" for P10MGql

Created 2019 Apr 22 2:07:22 UT using Find_Orb

Click here for an explanation of pseudo-MPECs

 
 Astrometry: 
     P10MGql  C2019 03 29.25216 11 57 09.61 -02 59 47.2    ~4JJ7 19.9 GVNEOCPG96
     P10MGql  C2019 03 29.25776 11 57 09.36 -02 59 46.1    ~4JJ7 20.1 GVNEOCPG96
     P10MGql  C2019 03 29.26335 11 57 09.19 -02 59 45.3    ~4JJ7 19.9 GVNEOCPG96
     P10MGql  C2019 03 29.26895 11 57 09.01 -02 59 44.3    ~4JJ7 20.1 GVNEOCPG96
     P10MGql  C2019 04 04VDgkM:O[M)mAimI]K)GH7*Z9r\+YbEF-r:\hO0KB+njT+;7R)6RBF51
     P10MGql  C2019 04 04.TXn.k0-7=%QyHcM#nBm'bn4wJXsAstrometryYfR'OC7\5T@-!qF51
     P10MGql  C2019 04 04kX?g%vogj)HgSZ:f!lm*j*fY8(SFFT=l2\Y72(Y1[C?o^+J*STN7F51
     P10MGql  C2019 04 04A-P#av$omJ())sf,rwg7a^/3F7@vn[LLQ?v3IZ`?Fm7C4S:K-p3lF51
     P10MGql |C2019 04 05%)%K@yh5N;@n7-qqm6=:M;)[UTB%A4*JmUDm13(`(.?/%kVo.qvI807
     P10MGql |C2019 04 051X.T]PhgT6wy).feHngVgP5X,^A#[jWFIf`pCNJY%#gi'67HFYR\807
     P10MGql |C2019 04 05k^@2U#sV9Vf/Sn42s7N;[/QL1w+c3wTccredacted;fk?F_PgH)[807
     P10MGql  C2019 04 05.21337 11 53 44.80 -02 45 28.6    ~456X 19.8 GVNEOCPI52
     P10MGql  C2019 04 05.22070 11 53 44.58 -02 45 27.8    ~456X 20.4 GVNEOCPI52
     P10MGql  C2019 04 05.23910 11 53 44.11 -02 45 26.3    ~456X 20.0 GVNEOCPI52
     P10MGql 1C2019 04 05\p/txJUbU'MRgkfmt'e7H01no;5xKHZtG^)c916ER'epN9w9+yJpQ62
     P10MGql 1C2019 04 05Hs1]7/.lXBfYZpBM[2s3n8]B,4\74`-\Yr?K'(=9J)L+SHXh[+UOQ62
     P10MGql 1C2019 04 05D8K*M-A;G(w[p,[xIO#,!.:$@(_L8hJP9.W!Or1I]1@ilr8uuyQ]Q62
     P10MGql  C2019 04 05.90107 11 53 25.42 -02 44 08.1    ~468I 21.8 VVNEOCP033
     P10MGql  C2019 04 05.90464 11 53 25.34 -02 44 07.7    ~468I 21.4 VVNEOCP033
     P10MGql KC2019 04 069UXun^3\bOpu*yH-0KDAE4g=mYn+rIcn=G'ScE(YugXwthHrcn,*L01
     P10MGql KC2019 04 06fgG3F;s[g[\H4EHq$w^6t2Xv*uDk0X'xXwQ;xrQZu?C6^ttOn`-DL01
     P10MGql KC2019 04 06k)C\c-nj+AH27*hZ%-:DSvr(DYii$rf:5sb%h!M8M_ZahVAf/q8kL01
     P10MGql KC2019 04 06KZ_O-KCBD+IN$P(pWgQ?`?O'_^Rw)n#c-,pXP9W5;cs1FjhgAaM:A71
     P10MGql KC2019 04 066.SNaPW/-u=:EOj^,%TgC'xCqf0l(^`F9m-D$qQy4kEc5]pok]lsA71
     P10MGql KC2019 04 0655DUEk]]Q*EIkCMbt'P@L:/cd$U!J(6_Lk_qOB#+HTLk[4?be9hYA71
     P10MGql KC2019 04 06IRC'aDRi47o%Pg.sj9SlG%7]n0y3Jhlst5T[3,JGx?N`5!*(Uv*4A71
     P10MGql  C2019 04 07.38816 11 52 44.32 -02 41 11.5    ~47AI 19.8 GVNEOCPI52
     P10MGql  C2019 04 07.39624 11 52 44.10 -02 41 10.4    ~47AI 20.3 GVNEOCPI52
     P10MGql  C2019 04 07.41033 11 52 43.67 -02 41 08.6    ~47AI 20.9 GVNEOCPI52
     P10MGql 9C2019 04 08gA(x@;H.-u(vOclick=c6gd4akbGZ,s\aJAjHb_JJGE-CNJadlKRG40
     P10MGql 9C2019 04 08SpoTP3:G,wGmGi7I+ws/DrAA\e3.q@$fN/yiV_f#-gFD6+u/;?[1G40
     P10MGql  C2019 04 10.87921 11 51 12.53 -02 34 37.1    ~4AM3 19.2 VVNEOCP033
     P10MGql  C2019 04 10.88278 11 51 12.40 -02 34 36.5    ~4AM3 19.4 VVNEOCP033
     P10MGql  C2019 04 10.88635 11 51 12.33 -02 34 35.9    ~4AM3 19.4 VVNEOCP033
     P10MGql  C2019 04 10.89041 11 51 12.23 -02 34 35.5    ~4AM3 19.2 VVNEOCP033
     P10MGql  C2019 04 11.19863 11 51 04.44 -02 34 01.4    ~4B63 20.4 GVNEOCPI52
     P10MGql  C2019 04 11.20601 11 51 04.26 -02 34 00.3    ~4B63 20.9 GVNEOCPI52
     P10MGql  C2019 04 11.22615 11 51 03.73 -02 33 58.8    ~4B63       VNEOCPI52
     P10MGql  C2019 04 11.23362 11 51 03.52 -02 33 56.9    ~4B63       VNEOCPI52
     P10MGql KC2019 04 12;[,ws_rmd^BM^e)CQ`*aO.lJqaDRM9gY6h-v`:xBg6-JZ80d0Kmr711
     P10MGql KC2019 04 125YA,U/@EwMu7M55JVL1`Jk$ZLS4DBH:d.IsNnJUja]YP-jVrppB;711
     P10MGql KC2019 04 12OW2!dy,hereH9p1C90moT.Rh_9Xo1(f.Do?0p)0I53b,x$O7hw,w711
     P10MGql HC2019 04 13+8?D+w:=%ZK#OjgyMRHforb?dH=BRTdO;a4-ZY9WM07a5n6%\i,h691
     P10MGql HC2019 04 137n-!=JwIXaRM#f[]yN;L^,gsWR6F^$]Re8Ii5LHQ$OTk07j8Rqv8691
     P10MGql HC2019 04 13^Im!]b_bl'loq\B?3FHgk3$6K1-#EKp;MTXfp22w$\H:Xg'$jnJ#691
     P10MGql KC2019 04 14M`N8GP;lf.)tfoDx\uVDKveRTUG$XN-@e7529!@vOexplanation691
     P10MGql KC2019 04 14`Fs8(oH9sv$L*4Mcl!'SuGk0Y^fS[;9'5+/*S/wM_UyCi,\'hiV5691
     P10MGql KC2019 04 14ZfH?R!Tnn[)SDg,-d3lsficlPyMh)-IpUBH0vpXWS1U@=b^+TXqw691

Station data:
(033) Karl Schwarzschild Observatory, Tautenburg  (N50.980140 E11.711240)
   Germany. 1.3-m Schmidt.
(691) Steward Observatory, Kitt Peak - Spacewatch  (N31.962174 W111.600327)
   US/Arizona.  Observer J. V. Scotti. 0.9-m f/3 reflector + CCD.
(711) McDonald Observatory, Fort Davis  (N30.671481 W104.021500)  US/Texas.
   0.76-m f/3.0 reflector.
(807) Cerro Tololo Observatory, La Serena  (S30.169136 W70.805900)  Chile.
(A71) Stixendorf  (N48.428775 E15.453300)  Austria.
(F51) Pan-STARRS 1, Haleakala  (N20.707235 W156.255910)  US/Hawaii.
   Observers N. Primak, A. Schultz, S. Watters, J. Thiel, T. Goggia. Measurer
   PS1 Science Consortium. 1.8-m Ritchey-Chrétien + CCD.
(G40) Slooh.com Canary Islands Observatory  (N28.299720 W16.508260)  Canary
   Islands (Spain).  Observers G. Gašparović, Y. Chen. 0.43-m f/6.8 Corrected
   Dall-Kirkham + CCD.
(G96) Mt. Lemmon Survey  (N32.442754 W110.788720)  US/Arizona.  Observers T.
   A. Pruyne, B. M. Africano, E. J. Christensen, G. A. Farneth, D. C. Fuls,
   A. R. Gibbs, A. D. Grauer, H. Groeller, J. A. Johnson, R. A. Kowalski, S.
   M. Larson, G. J. Leonard, R. L. Seaman, F. C. Shelly. 1.5-m reflector +
   10K CCD.
(I52) Steward Observatory, Mt. Lemmon Station  (N32.442547 W110.788920)
   US/Arizona.  Observers T. A. Pruyne, B. M. Africano, E. J. Christensen, G.
   A. Farneth, D. C. Fuls, A. R. Gibbs, A. D. Grauer, H. Groeller, J. A.
   Johnson, R. A. Kowalski, S. M. Larson, G. J. Leonard, R. L. Seaman, F. C.
   Shelly. 1.0-m reflector + CCD.
(L01) Višnjan Observatory, Tičan  (N45.290900 E13.749300)  Croatia.
   Observers K. Korlević, E. Pettarin. Measurer E. Pettarin. 1.0-m f/2.9
   reflector + CCD.
(Q62) iTelescope Observatory, Siding Spring  (S31.273289 E149.064420)
   Australia/NSW. 0.50-m f/6.8 astrograph + CCD + focal reducer, 0.70-m f/6.6
   astrograph + CCD.

Orbital elements:  P10MGql
   Perihelion 2019 Jun 27.167707 +/- 14.2 TT =  4:01:29 (JD 2458661.667707)
Epoch 2019 Apr 14.0 TT = JDT 2458587.5   Ju: 0.3087   Sa: 0.2909
M 356.65152865 +/- 0.46             (J2000 ecliptic)          AutoNEOCP
n   0.04514729 +/- 0.00161          Peri.  217.22141 +/- 3.0
a   7.81114848 +/- 0.185            Node   339.79606 +/- 0.31
e   0.5101298 +/- 0.0173            Incl.    5.83103 +/- 0.09
P  21.83                   H 15.1   G  0.15   U  8.5  
q 3.82644880 +/- 0.0475    Q 11.7958481 +/- 0.442
From 48 observations 2019 Mar. 29-Apr. 14; mean residual 0".43
Residuals in arcseconds: 
190329 G96  .76+  .36-    190405 Q62  .26-  .26-    190410 033  .22-  .03-    
190329 G96  .35-  .04+    190405 033  .38-  .25-    190410 033  .13+  .18+    
190329 G96  .26-  .15+    190405 033  .04-  .28-    190410 033  .23+  .13+    
190329 G96  .32-  .45+    190406 L01  .25+  .19+    190411 I52  .24-  .13-    
190404 F51  .40+  .23-    190406 L01  .69+  .32+    190411 I52  .04-  .17+    
190404 F51  .09+  .27-    190406 L01  .47-  .33+    190411 I52  .06-  .52-    
190404 F51  .13+  .18-    190406 A71  1.2-  .12+    190411 I52  .27-  .57+    
190404 F51  .27+  .18-    190406 A71  1.0-  .00     190412 711  1.2+  .02+    
190405 807  .19-  .28-    190406 A71  .61-  .07+    190412 711  .79+  .13+    
190405 807  .15+  .22-    190406 A71  .90-  .35+    190412 711  .56+  .06-    
190405 807  .37+  .29-    190407 I52  .34+  .26+    190413 691  .43-  .49-    
190405 I52  .31+  .77+    190407 I52  .43+  .41+    190413 691  .46+  .30+    
190405 I52  .22+  .69+    190407 I52  .13-  .56+    190413 691  .60-  .12-    
190405 I52  1.2+  .02-    190408 G40  .05-  .80-    190414 691  .03-  .20+    
190405 Q62  .16-  .44-    190408 G40  .67-  .56-    190414 691  .56-  .30+    
190405 Q62  .06-  .10-    190410 033  .33+  .24-    190414 691  .33-  .10+    

Ephemerides (geocentric):
Date (UTC) HH   RA              Dec         delta   r     elong  mag " sig PA
---- -- -- --  -------------   -----------  ------ ------ -----  --- ---- ---
2019 04 22 02  11 47 08.740   -02 17 06.67  2.9714 3.8489 146.4 20.9 3.19 104
2019 04 22 03  11 47 08.001   -02 17 03.56  2.9717 3.8488 146.4 20.9 3.22 104
2019 04 22 04  11 47 07.264   -02 17 00.46  2.9720 3.8488 146.3 20.9 3.24 104
2019 04 22 05  11 47 06.528   -02 16 57.36  2.9723 3.8488 146.3 20.9 3.27 104
2019 04 22 06  11 47 05.794   -02 16 54.27  2.9726 3.8488 146.2 20.9 3.30 104
2019 04 22 07  11 47 05.061   -02 16 51.18  2.9728 3.8487 146.2 20.9 3.33 104
2019 04 22 08  11 47 04.329   -02 16 48.10  2.9731 3.8487 146.1 20.9 3.36 104
2019 04 22 09  11 47 03.599   -02 16 45.03  2.9734 3.8487 146.1 20.9 3.38 104
2019 04 22 10  11 47 02.870   -02 16 41.97  2.9737 3.8486 146.1 20.9 3.41 105
2019 04 22 11  11 47 02.142   -02 16 38.91  2.9740 3.8486 146.0 20.9 3.44 105
2019 04 22 12  11 47 01.416   -02 16 35.86  2.9743 3.8486 146.0 20.9 3.47 105
2019 04 22 13  11 47 00.691   -02 16 32.81  2.9746 3.8486 145.9 20.9 3.50 105
2019 04 22 14  11 46 59.967   -02 16 29.78  2.9749 3.8485 145.9 20.9 3.53 105
2019 04 22 15  11 46 59.245   -02 16 26.74  2.9752 3.8485 145.8 20.9 3.56 105
2019 04 22 16  11 46 58.524   -02 16 23.72  2.9755 3.8485 145.8 20.9 3.59 105
2019 04 22 17  11 46 57.804   -02 16 20.70  2.9758 3.8484 145.7 20.9 3.62 105
2019 04 22 18  11 46 57.086   -02 16 17.69  2.9761 3.8484 145.7 20.9 3.65 105
2019 04 22 19  11 46 56.370   -02 16 14.69  2.9764 3.8484 145.7 20.9 3.68 105
2019 04 22 20  11 46 55.654   -02 16 11.69  2.9767 3.8484 145.6 20.9 3.71 105
2019 04 22 21  11 46 54.940   -02 16 08.70  2.9770 3.8483 145.6 20.9 3.74 105
2019 04 22 22  11 46 54.228   -02 16 05.71  2.9773 3.8483 145.5 20.9 3.77 105
2019 04 22 23  11 46 53.516   -02 16 02.73  2.9776 3.8483 145.5 20.9 3.80 105
2019 04 23 00  11 46 52.806   -02 15 59.76  2.9779 3.8482 145.4 20.9 3.83 105
2019 04 23 01  11 46 52.098   -02 15 56.80  2.9782 3.8482 145.4 20.9 3.86 105
2019 04 23 02  11 46 51.391   -02 15 53.84  2.9785 3.8482 145.4 20.9 3.89 105
2019 04 23 03  11 46 50.685   -02 15 50.89  2.9788 3.8482 145.3 20.9 3.92 105
2019 04 23 04  11 46 49.980   -02 15 47.95  2.9791 3.8481 145.3 20.9 3.95 105
2019 04 23 05  11 46 49.277   -02 15 45.01  2.9794 3.8481 145.2 20.9 3.99 105
2019 04 23 06  11 46 48.576   -02 15 42.08  2.9797 3.8481 145.2 20.9 4.02 105
2019 04 23 07  11 46 47.875   -02 15 39.15  2.9800 3.8481 145.1 20.9 4.05 105
2019 04 23 08  11 46 47.177   -02 15 36.24  2.9803 3.8480 145.1 20.9 4.08 105
2019 04 23 09  11 46 46.479   -02 15 33.33  2.9806 3.8480 145.1 20.9 4.11 105
2019 04 23 10  11 46 45.783   -02 15 30.42  2.9809 3.8480 145.0 20.9 4.15 105
2019 04 23 11  11 46 45.088   -02 15 27.53  2.9812 3.8479 145.0 20.9 4.18 105
2019 04 23 12  11 46 44.395   -02 15 24.64  2.9815 3.8479 144.9 20.9 4.21 105
2019 04 23 13  11 46 43.703   -02 15 21.75  2.9818 3.8479 144.9 20.9 4.24 105
2019 04 23 14  11 46 43.012   -02 15 18.88  2.9821 3.8479 144.8 20.9 4.28 105
2019 04 23 15  11 46 42.323   -02 15 16.01  2.9824 3.8478 144.8 20.9 4.31 105
2019 04 23 16  11 46 41.635   -02 15 13.15  2.9827 3.8478 144.7 20.9 4.34 105
2019 04 23 17  11 46 40.949   -02 15 10.29  2.9830 3.8478 144.7 20.9 4.38 105
2019 04 23 18  11 46 40.264   -02 15 07.44  2.9834 3.8478 144.7 20.9 4.41 105
2019 04 23 19  11 46 39.580   -02 15 04.60  2.9837 3.8477 144.6 20.9 4.44 105
2019 04 23 20  11 46 38.898   -02 15 01.77  2.9840 3.8477 144.6 20.9 4.48 105
2019 04 23 21  11 46 38.217   -02 14 58.94  2.9843 3.8477 144.5 20.9 4.51 105
2019 04 23 22  11 46 37.537   -02 14 56.12  2.9846 3.8476 144.5 20.9 4.55 105
2019 04 23 23  11 46 36.859   -02 14 53.30  2.9849 3.8476 144.4 21.0 4.58 105
2019 04 24 00  11 46 36.183   -02 14 50.49  2.9852 3.8476 144.4 21.0 4.61 105
2019 04 24 01  11 46 35.507   -02 14 47.69  2.9855 3.8476 144.4 21.0 4.65 105